| time (UTC) | temp F | wind direction | speed MPH | gust MPH | rain 1hr in | rain 24hr in | rain mn in | humidity % | barometer mb |
| 20260901225204 | 94 | 203 | 2.0 | 3.0 | 0.00 | 0.00 | 0.00 | 51 | 1022.0 |
| 20260901224434 | 94 | 203 | 2.0 | 4.0 | 0.00 | 0.00 | 0.00 | 51 | 1022.0 |
| 20260901224156 | 94 | 191 | 2.0 | 4.0 | 0.00 | 0.00 | 0.00 | 51 | 1022.2 |
| 20260901223428 | 94 | 197 | 2.0 | 4.0 | 0.00 | 0.00 | 0.00 | 53 | 1022.2 |
| 20260901222926 | 94 | 197 | 2.0 | 4.0 | 0.00 | 0.00 | 0.00 | 52 | 1022.2 |
| 20260901222418 | 94 | 197 | 2.0 | 4.0 | 0.00 | 0.00 | 0.00 | 54 | 1022.1 |
| 20260901221909 | 94 | 186 | 2.0 | 5.0 | 0.00 | 0.00 | 0.00 | 52 | 1022.1 |
| 20260901221408 | 94 | 201 | 2.0 | 5.0 | 0.00 | 0.00 | 0.00 | 51 | 1022.1 |
| 20260901220905 | 94 | 196 | 2.0 | 4.0 | 0.00 | 0.00 | 0.00 | 50 | 1022.1 |
| 20260901220406 | 94 | 255 | 2.0 | 4.0 | 0.00 | 0.00 | 0.00 | 50 | 1022.1 |
| 20260901215858 | 94 | 198 | 2.0 | 4.0 | 0.00 | 0.00 | 0.00 | 51 | 1022.1 |
| 20260901215359 | 94 | 256 | 2.0 | 4.0 | 0.00 | 0.00 | 0.00 | 55 | 1022.2 |
| 20260901214901 | 94 | 233 | 2.0 | 4.0 | 0.00 | 0.00 | 0.00 | 52 | 1022.2 |
| 20260901214346 | 93 | 215 | 2.0 | 3.0 | 0.00 | 0.00 | 0.00 | 52 | 1022.2 |
| 20260901213846 | 93 | 214 | 2.0 | 3.0 | 0.00 | 0.00 | 0.00 | 53 | 1022.4 |
| 20260901213340 | 93 | 211 | 2.0 | 4.0 | 0.00 | 0.00 | 0.00 | 51 | 1022.4 |
| 20260901212829 | 93 | 211 | 0.0 | 4.0 | 0.00 | 0.00 | 0.00 | 51 | 1022.4 |
| 20260901212547 | 93 | 180 | 0.0 | 2.0 | 0.00 | 0.00 | 0.00 | 54 | 1022.3 |
| 20260901211801 | 93 | 180 | 1.0 | 3.0 | 0.00 | 0.00 | 0.00 | 52 | 1022.3 |
| 20260901211253 | 92 | 158 | 1.0 | 3.0 | 0.00 | 0.00 | 0.00 | 55 | 1022.3 |
| 20260901211002 | 92 | 55 | 1.0 | 3.0 | 0.00 | 0.00 | 0.00 | 53 | 1022.3 |
| 20260901210241 | 92 | 53 | 1.0 | 2.0 | 0.00 | 0.00 | 0.00 | 54 | 1022.3 |
| 20260901205741 | 91 | 356 | 2.0 | 1.0 | 0.00 | 0.00 | 0.00 | 55 | 1022.3 |
| 20260901205236 | 91 | 356 | 2.0 | 2.0 | 0.00 | 0.00 | 0.00 | 55 | 1022.4 |
| 20260901204732 | 91 | 356 | 2.0 | 4.0 | 0.00 | 0.00 | 0.00 | 55 | 1022.4 |
| 20260901204223 | 91 | 356 | 2.0 | 4.0 | 0.00 | 0.00 | 0.00 | 56 | 1022.5 |
| 20260901203721 | 90 | 349 | 2.0 | 4.0 | 0.00 | 0.00 | 0.00 | 55 | 1022.5 |
| 20260901203218 | 91 | 335 | 2.0 | 4.0 | 0.00 | 0.00 | 0.00 | 54 | 1022.5 |
| 20260901202718 | 91 | 204 | 2.0 | 2.0 | 0.00 | 0.00 | 0.00 | 54 | 1022.6 |
| 20260901202203 | 90 | 204 | 2.0 | 2.0 | 0.00 | 0.00 | 0.00 | 60 | 1022.6 |
| 20260901201702 | 90 | 204 | 2.0 | 4.0 | 0.00 | 0.00 | 0.00 | 60 | 1022.6 |
| 20260901201355 | 90 | 204 | 2.0 | 4.0 | 0.00 | 0.00 | 0.00 | 60 | 1022.7 |
| 20260901200628 | 89 | 206 | 2.0 | 5.0 | 0.00 | 0.00 | 0.00 | 59 | 1022.7 |
| 20260901200128 | 89 | 209 | 2.0 | 5.0 | 0.00 | 0.00 | 0.00 | 58 | 1022.7 |
| 20260901195624 | 90 | 221 | 1.0 | 3.0 | 0.00 | 0.00 | 0.00 | 57 | 1022.8 |
| 20260901195126 | 90 | 353 | 1.0 | 3.0 | 0.00 | 0.00 | 0.00 | 56 | 1022.8 |
| 20260901194623 | 90 | 353 | 2.0 | 4.0 | 0.00 | 0.00 | 0.00 | 56 | 1022.8 |
| 20260901194115 | 90 | 353 | 2.0 | 4.0 | 0.00 | 0.00 | 0.00 | 55 | 1022.8 |
| 20260901193830 | 90 | 3 | 2.0 | 4.0 | 0.00 | 0.00 | 0.00 | 55 | 1022.8 |
| 20260901193114 | 90 | 67 | 2.0 | 4.0 | 0.00 | 0.00 | 0.00 | 56 | 1022.8 |
| 20260901192603 | 91 | 344 | 2.0 | 4.0 | 0.00 | 0.00 | 0.00 | 54 | 1023.0 |
| 20260901192321 | 91 | 359 | 2.0 | 6.0 | 0.00 | 0.00 | 0.00 | 54 | 1023.0 |
| 20260901191603 | 91 | 334 | 2.0 | 6.0 | 0.00 | 0.00 | 0.00 | 54 | 1023.0 |
| 20260901191103 | 91 | 195 | 2.0 | 6.0 | 0.00 | 0.00 | 0.00 | 58 | 1023.1 |
| 20260901190558 | 91 | 210 | 2.0 | 6.0 | 0.00 | 0.00 | 0.00 | 57 | 1023.1 |
| 20260901190058 | 91 | 175 | 3.0 | 6.0 | 0.00 | 0.00 | 0.00 | 56 | 1023.1 |
| 20260901185553 | 91 | 160 | 3.0 | 6.0 | 0.00 | 0.00 | 0.00 | 59 | 1023.3 |
| 20260901185053 | 91 | 205 | 3.0 | 6.0 | 0.00 | 0.00 | 0.00 | 55 | 1023.3 |
| 20260901184553 | 91 | 333 | 3.0 | 6.0 | 0.00 | 0.00 | 0.00 | 53 | 1023.3 |
| 20260901184053 | 91 | 175 | 4.0 | 6.0 | 0.00 | 0.00 | 0.00 | 56 | 1023.4 |
| 20260901183551 | 91 | 210 | 4.0 | 7.0 | 0.00 | 0.00 | 0.00 | 55 | 1023.4 |
| 20260901183051 | 90 | 251 | 3.0 | 7.0 | 0.00 | 0.00 | 0.00 | 58 | 1023.4 |
| 20260901182548 | 90 | 204 | 3.0 | 6.0 | 0.00 | 0.00 | 0.00 | 54 | 1023.6 |
| 20260901182048 | 90 | 226 | 3.0 | 6.0 | 0.00 | 0.00 | 0.00 | 55 | 1023.6 |
| 20260901181808 | 90 | 288 | 3.0 | 6.0 | 0.00 | 0.00 | 0.00 | 57 | 1023.6 |
| 20260901181047 | 89 | 206 | 2.0 | 5.0 | 0.00 | 0.00 | 0.00 | 59 | 1023.7 |
| 20260901180809 | 89 | 336 | 2.0 | 5.0 | 0.00 | 0.00 | 0.00 | 59 | 1023.7 |
| 20260901180310 | 89 | 249 | 2.0 | 4.0 | 0.00 | 0.00 | 0.00 | 62 | 1023.7 |
| 20260901175548 | 89 | 103 | 2.0 | 5.0 | 0.00 | 0.00 | 0.00 | 59 | 1023.7 |
| 20260901175047 | 89 | 47 | 2.0 | 5.0 | 0.00 | 0.00 | 0.00 | 59 | 1023.7 |
| 20260901174547 | 89 | 262 | 2.0 | 5.0 | 0.00 | 0.00 | 0.00 | 62 | 1023.7 |
| 20260901174045 | 89 | 196 | 2.0 | 5.0 | 0.00 | 0.00 | 0.00 | 62 | 1023.9 |
| 20260901174034 | 89 | 31 | 2.0 | 3.0 | 0.00 | 0.00 | 0.00 | 67 | 1023.9 |
| 20260901173049 | 88 | 64 | 3.0 | 5.0 | 0.00 | 0.00 | 0.00 | 66 | 1023.9 |
| 20260901172548 | 88 | 186 | 3.0 | 6.0 | 0.00 | 0.00 | 0.00 | 62 | 1024.0 |
| 20260901172252 | 88 | 194 | 3.0 | 6.0 | 0.00 | 0.00 | 0.00 | 63 | 1024.0 |
| 20260901171536 | 87 | 273 | 3.0 | 4.0 | 0.00 | 0.00 | 0.00 | 68 | 1024.0 |
| 20260901171035 | 87 | 359 | 4.0 | 6.0 | 0.00 | 0.00 | 0.00 | 63 | 1024.2 |
| 20260901170535 | 87 | 258 | 4.0 | 10.0 | 0.00 | 0.00 | 0.00 | 66 | 1024.2 |
| 20260901170035 | 86 | 254 | 2.0 | 10.0 | 0.00 | 0.00 | 0.00 | 66 | 1024.2 |
| 20260901165536 | 87 | 201 | 2.0 | 9.0 | 0.00 | 0.00 | 0.00 | 66 | 1024.4 |
| 20260901165035 | 86 | 219 | 3.0 | 5.0 | 0.00 | 0.00 | 0.00 | 66 | 1024.4 |
| 20260901164535 | 86 | 345 | 3.0 | 8.0 | 0.00 | 0.00 | 0.00 | 65 | 1024.4 |
| 20260901164035 | 86 | 265 | 4.0 | 8.0 | 0.00 | 0.00 | 0.00 | 67 | 1024.5 |
| 20260901163533 | 86 | 210 | 4.0 | 7.0 | 0.00 | 0.00 | 0.00 | 67 | 1024.5 |
| 20260901163032 | 85 | 213 | 2.0 | 8.0 | 0.00 | 0.00 | 0.00 | 68 | 1024.5 |
| 20260901162533 | 85 | 202 | 2.0 | 8.0 | 0.00 | 0.00 | 0.00 | 70 | 1024.7 |
| 20260901162254 | 85 | 243 | 2.0 | 6.0 | 0.00 | 0.00 | 0.00 | 67 | 1024.7 |
| 20260901161530 | 85 | 248 | 2.0 | 6.0 | 0.00 | 0.00 | 0.00 | 70 | 1024.7 |
| 20260901161034 | 84 | 201 | 3.0 | 7.0 | 0.00 | 0.00 | 0.00 | 70 | 1024.8 |
| 20260901160531 | 84 | 208 | 3.0 | 7.0 | 0.00 | 0.00 | 0.00 | 71 | 1024.8 |
| 20260901160028 | 84 | 196 | 2.0 | 6.0 | 0.00 | 0.00 | 0.00 | 74 | 1024.8 |
| 20260901155744 | 84 | 196 | 2.0 | 5.0 | 0.00 | 0.00 | 0.00 | 73 | 1024.9 |
| 20260901155025 | 83 | 198 | 2.0 | 5.0 | 0.00 | 0.00 | 0.00 | 75 | 1024.9 |
| 20260901154525 | 83 | 178 | 2.0 | 5.0 | 0.00 | 0.00 | 0.00 | 75 | 1024.9 |
| 20260901154025 | 83 | 182 | 2.0 | 5.0 | 0.00 | 0.00 | 0.00 | 74 | 1025.0 |
| 20260901153745 | 82 | 171 | 2.0 | 5.0 | 0.00 | 0.00 | 0.00 | 74 | 1025.0 |
| 20260901153026 | 82 | 214 | 2.0 | 5.0 | 0.00 | 0.00 | 0.00 | 75 | 1025.0 |
| 20260901152522 | 82 | 262 | 2.0 | 5.0 | 0.00 | 0.00 | 0.00 | 76 | 1025.1 |
| 20260901152022 | 81 | 191 | 2.0 | 5.0 | 0.00 | 0.00 | 0.00 | 77 | 1025.1 |
| 20260901151521 | 81 | 190 | 2.0 | 5.0 | 0.00 | 0.00 | 0.00 | 78 | 1025.1 |
| 20260901151015 | 80 | 175 | 2.0 | 2.0 | 0.00 | 0.00 | 0.00 | 82 | 1025.2 |
| 20260901150502 | 80 | 175 | 2.0 | 2.0 | 0.00 | 0.00 | 0.00 | 82 | 1025.2 |
| 20260901145954 | 80 | 175 | 2.0 | 4.0 | 0.00 | 0.00 | 0.00 | 82 | 1025.2 |
| 20260901145445 | 80 | 175 | 2.0 | 4.0 | 0.00 | 0.00 | 0.00 | 82 | 1025.2 |
| 20260901144943 | 79 | 194 | 2.0 | 4.0 | 0.00 | 0.00 | 0.00 | 83 | 1025.2 |
| 20260901144443 | 79 | 195 | 2.0 | 4.0 | 0.00 | 0.00 | 0.00 | 82 | 1025.2 |
| 20260901143939 | 79 | 70 | 2.0 | 4.0 | 0.00 | 0.00 | 0.00 | 85 | 1025.1 |
| 20260901143705 | 78 | 359 | 2.0 | 4.0 | 0.00 | 0.00 | 0.00 | 84 | 1025.1 |
| 20260901142938 | 78 | 69 | 2.0 | 4.0 | 0.00 | 0.00 | 0.00 | 83 | 1025.1 |
| 20260901142435 | 78 | 123 | 2.0 | 4.0 | 0.00 | 0.00 | 0.00 | 85 | 1025.1 |
| 20260901141932 | 77 | 82 | 2.0 | 4.0 | 0.00 | 0.00 | 0.00 | 88 | 1025.1 |
| 20260901141435 | 77 | 351 | 2.0 | 5.0 | 0.00 | 0.00 | 0.00 | 87 | 1025.1 |
| 20260901141141 | 76 | 71 | 2.0 | 5.0 | 0.00 | 0.00 | 0.00 | 88 | 1025.1 |
| 20260901141024 | 76 | 201 | 2.0 | 5.0 | 0.00 | 0.00 | 0.00 | 88 | 1025.1 |
| 20260901135933 | 76 | 74 | 2.0 | 5.0 | 0.00 | 0.00 | 0.00 | 90 | 1025.1 |
| 20260901135431 | 76 | 259 | 2.0 | 5.0 | 0.00 | 0.00 | 0.00 | 91 | 1025.2 |
| 20260901134927 | 75 | 5 | 2.0 | 5.0 | 0.00 | 0.00 | 0.00 | 91 | 1025.2 |
| 20260901134427 | 75 | 184 | 2.0 | 4.0 | 0.00 | 0.00 | 0.00 | 91 | 1025.2 |
| 20260901133927 | 75 | 72 | 2.0 | 4.0 | 0.00 | 0.00 | 0.00 | 92 | 1025.0 |
| 20260901133428 | 74 | 72 | 2.0 | 4.0 | 0.00 | 0.00 | 0.00 | 92 | 1025.0 |
| 20260901132925 | 74 | 72 | 2.0 | 4.0 | 0.00 | 0.00 | 0.00 | 94 | 1025.0 |
| 20260901132425 | 74 | 71 | 2.0 | 4.0 | 0.00 | 0.00 | 0.00 | 94 | 1025.1 |
| 20260901131918 | 74 | 73 | 3.0 | 4.0 | 0.00 | 0.00 | 0.00 | 94 | 1025.1 |
| 20260901131415 | 73 | 56 | 3.0 | 4.0 | 0.00 | 0.00 | 0.00 | 95 | 1025.1 |
| 20260901130916 | 73 | 345 | 2.0 | 5.0 | 0.00 | 0.00 | 0.00 | 95 | 1025.1 |
| 20260901130852 | 73 | 336 | 2.0 | 5.0 | 0.00 | 0.00 | 0.00 | 96 | 1025.1 |
| 20260901125915 | 73 | 46 | 2.0 | 4.0 | 0.00 | 0.00 | 0.00 | 97 | 1025.1 |
| 20260901125412 | 72 | 347 | 2.0 | 4.0 | 0.00 | 0.00 | 0.00 | 98 | 1025.1 |
| 20260901124916 | 72 | 76 | 2.0 | 4.0 | 0.00 | 0.00 | 0.00 | 98 | 1025.1 |
| 20260901124408 | 71 | 25 | 2.0 | 4.0 | 0.00 | 0.00 | 0.00 | 98 | 1025.1 |
| 20260901124131 | 71 | 15 | 2.0 | 4.0 | 0.00 | 0.00 | 0.00 | 98 | 1025.1 |
| 20260901123845 | 71 | 8 | 2.0 | 4.0 | 0.00 | 0.00 | 0.00 | 99 | 1025.1 |
| 20260901122853 | 71 | 8 | 2.0 | 4.0 | 0.00 | 0.00 | 0.00 | 99 | 1025.1 |
| 20260901122352 | 71 | 358 | 2.0 | 4.0 | 0.00 | 0.00 | 0.00 | 99 | 1024.8 |
| 20260901122113 | 71 | 359 | 2.0 | 4.0 | 0.00 | 0.00 | 0.00 | 99 | 1024.8 |
| 20260901121350 | 70 | 358 | 2.0 | 4.0 | 0.00 | 0.00 | 0.00 | 99 | 1024.8 |
| 20260901120848 | 70 | 358 | 3.0 | 5.0 | 0.00 | 0.00 | 0.00 | 99 | 1024.7 |
| 20260901120349 | 70 | 6 | 3.0 | 5.0 | 0.00 | 0.00 | 0.00 | 99 | 1024.7 |
| 20260901115840 | 70 | 359 | 2.0 | 5.0 | 0.00 | 0.00 | 0.00 | 99 | 1024.7 |
| 20260901115339 | 70 | 355 | 2.0 | 5.0 | 0.00 | 0.00 | 0.00 | 99 | 1024.4 |
| 20260901114837 | 70 | 9 | 3.0 | 4.0 | 0.00 | 0.00 | 0.00 | 99 | 1024.4 |
| 20260901114330 | 70 | 7 | 3.0 | 5.0 | 0.00 | 0.00 | 0.00 | 99 | 1024.4 |
| 20260901113825 | 70 | 6 | 2.0 | 5.0 | 0.00 | 0.00 | 0.00 | 99 | 1024.3 |
| 20260901113320 | 70 | 357 | 2.0 | 4.0 | 0.00 | 0.00 | 0.00 | 99 | 1024.3 |
| 20260901112820 | 70 | 7 | 1.0 | 4.0 | 0.00 | 0.00 | 0.00 | 99 | 1024.3 |
| 20260901112526 | 70 | 13 | 1.0 | 2.0 | 0.00 | 0.00 | 0.00 | 99 | 1024.1 |
| 20260901111810 | 70 | 13 | 0.0 | 2.0 | 0.00 | 0.00 | 0.00 | 99 | 1024.1 |
| 20260901111303 | 70 | 13 | 0.0 | 2.0 | 0.00 | 0.00 | 0.00 | 99 | 1024.1 |
| 20260901111026 | 70 | 13 | 1.0 | 2.0 | 0.00 | 0.00 | 0.00 | 99 | 1024.0 |
| 20260901110302 | 70 | 14 | 1.0 | 3.0 | 0.00 | 0.00 | 0.00 | 99 | 1024.0 |
| 20260901105802 | 70 | 13 | 2.0 | 3.0 | 0.00 | 0.00 | 0.00 | 99 | 1024.0 |
| 20260901105300 | 70 | 14 | 2.0 | 4.0 | 0.00 | 0.00 | 0.00 | 99 | 1023.9 |
| 20260901104758 | 70 | 13 | 2.0 | 4.0 | 0.00 | 0.00 | 0.00 | 99 | 1023.9 |
| 20260901104257 | 70 | 13 | 2.0 | 4.0 | 0.00 | 0.00 | 0.00 | 99 | 1023.9 |
| 20260901104016 | 70 | 2 | 2.0 | 4.0 | 0.00 | 0.00 | 0.00 | 99 | 1023.7 |
| 20260901103253 | 70 | 1 | 2.0 | 4.0 | 0.00 | 0.00 | 0.00 | 99 | 1023.7 |
| 20260901103014 | 70 | 18 | 2.0 | 3.0 | 0.00 | 0.00 | 0.00 | 99 | 1023.7 |
| 20260901102252 | 70 | 338 | 2.0 | 4.0 | 0.00 | 0.00 | 0.00 | 99 | 1023.4 |
| 20260901101752 | 70 | 338 | 2.0 | 4.0 | 0.00 | 0.00 | 0.00 | 99 | 1023.4 |
| 20260901101504 | 70 | 3 | 2.0 | 4.0 | 0.00 | 0.00 | 0.00 | 99 | 1023.4 |
| 20260901100745 | 70 | 356 | 2.0 | 4.0 | 0.00 | 0.00 | 0.00 | 99 | 1023.4 |
| 20260901100242 | 70 | 4 | 2.0 | 4.0 | 0.00 | 0.00 | 0.00 | 99 | 1023.4 |
| 20260901095733 | 70 | 355 | 3.0 | 5.0 | 0.00 | 0.00 | 0.00 | 99 | 1023.4 |
| 20260901095232 | 71 | 337 | 3.0 | 5.0 | 0.00 | 0.00 | 0.00 | 99 | 1023.3 |
| 20260901094731 | 71 | 6 | 3.0 | 4.0 | 0.00 | 0.00 | 0.00 | 99 | 1023.3 |
| 20260901094222 | 71 | 1 | 3.0 | 4.0 | 0.00 | 0.00 | 0.00 | 99 | 1023.1 |
| 20260901093715 | 71 | 14 | 2.0 | 4.0 | 0.00 | 0.00 | 0.00 | 98 | 1023.1 |
| 20260901093210 | 71 | 15 | 2.0 | 4.0 | 0.00 | 0.00 | 0.00 | 98 | 1023.1 |
| 20260901092705 | 71 | 12 | 2.0 | 4.0 | 0.00 | 0.00 | 0.00 | 99 | 1023.0 |
| 20260901092152 | 71 | 2 | 2.0 | 3.0 | 0.00 | 0.00 | 0.00 | 99 | 1023.0 |
| 20260901091919 | 71 | 2 | 2.0 | 3.0 | 0.00 | 0.00 | 0.00 | 99 | 1023.0 |
| 20260901091140 | 71 | 344 | 2.0 | 3.0 | 0.00 | 0.00 | 0.00 | 98 | 1023.0 |
| 20260901090640 | 71 | 342 | 2.0 | 3.0 | 0.00 | 0.00 | 0.00 | 98 | 1023.0 |
| 20260901090141 | 71 | 341 | 2.0 | 3.0 | 0.00 | 0.00 | 0.00 | 98 | 1023.0 |
| 20260901085625 | 71 | 341 | 2.0 | 4.0 | 0.00 | 0.00 | 0.00 | 98 | 1023.1 |
| 20260901085125 | 71 | 339 | 2.0 | 4.0 | 0.00 | 0.00 | 0.00 | 98 | 1023.1 |
| 20260901084625 | 71 | 338 | 2.0 | 4.0 | 0.00 | 0.00 | 0.00 | 98 | 1023.1 |
| 20260901084124 | 71 | 7 | 2.0 | 4.0 | 0.00 | 0.00 | 0.00 | 98 | 1023.3 |
| 20260901083622 | 71 | 3 | 0.0 | 2.0 | 0.00 | 0.00 | 0.00 | 98 | 1023.3 |
| 20260901083100 | 71 | 3 | 0.0 | 2.0 | 0.00 | 0.00 | 0.00 | 98 | 1023.3 |
| 20260901082821 | 71 | 3 | 0.0 | 2.0 | 0.00 | 0.00 | 0.00 | 98 | 1023.3 |
| 20260901082048 | 71 | 3 | 1.0 | 2.0 | 0.00 | 0.00 | 0.00 | 98 | 1023.3 |
| 20260901081550 | 71 | 3 | 1.0 | 3.0 | 0.00 | 0.00 | 0.00 | 98 | 1023.3 |
| 20260901081043 | 71 | 3 | 0.0 | 3.0 | 0.00 | 0.00 | 0.00 | 98 | 1023.3 |
| 20260901080543 | 71 | 3 | 0.0 | 2.0 | 0.00 | 0.00 | 0.00 | 97 | 1023.3 |
| 20260901080023 | 72 | 3 | 2.0 | 2.0 | 0.00 | 0.00 | 0.00 | 97 | 1023.3 |
| 20260901075512 | 72 | 3 | 2.0 | 4.0 | 0.00 | 0.00 | 0.00 | 98 | 1023.4 |
| 20260901075000 | 72 | 3 | 2.0 | 4.0 | 0.00 | 0.00 | 0.00 | 98 | 1023.4 |
| 20260901074718 | 72 | 8 | 2.0 | 4.0 | 0.00 | 0.00 | 0.00 | 97 | 1023.4 |
| 20260901073945 | 72 | 8 | 2.0 | 4.0 | 0.00 | 0.00 | 0.00 | 98 | 1023.3 |
| 20260901073441 | 72 | 16 | 2.0 | 3.0 | 0.00 | 0.00 | 0.00 | 98 | 1023.3 |
| 20260901072933 | 72 | 17 | 2.0 | 4.0 | 0.00 | 0.00 | 0.00 | 97 | 1023.3 |
| 20260901072431 | 72 | 19 | 2.0 | 4.0 | 0.00 | 0.00 | 0.00 | 97 | 1023.5 |
| 20260901071930 | 72 | 0 | 2.0 | 4.0 | 0.00 | 0.00 | 0.00 | 97 | 1023.5 |
| 20260901071420 | 73 | 354 | 2.0 | 4.0 | 0.00 | 0.00 | 0.00 | 97 | 1023.5 |
| 20260901070920 | 73 | 12 | 2.0 | 4.0 | 0.00 | 0.00 | 0.00 | 97 | 1023.7 |
| 20260901070645 | 73 | 12 | 2.0 | 3.0 | 0.00 | 0.00 | 0.00 | 97 | 1023.7 |
| 20260901070138 | 73 | 12 | 2.0 | 3.0 | 0.00 | 0.00 | 0.00 | 97 | 1023.7 |
| 20260901065415 | 73 | 12 | 2.0 | 3.0 | 0.00 | 0.00 | 0.00 | 97 | 1023.8 |
| 20260901064913 | 73 | 12 | 2.0 | 4.0 | 0.00 | 0.00 | 0.00 | 97 | 1023.8 |
| 20260901064413 | 73 | 11 | 2.0 | 4.0 | 0.00 | 0.00 | 0.00 | 97 | 1023.8 |
| 20260901063912 | 73 | 1 | 2.0 | 4.0 | 0.00 | 0.00 | 0.00 | 97 | 1023.8 |
| 20260901063411 | 73 | 11 | 2.0 | 4.0 | 0.00 | 0.00 | 0.00 | 97 | 1023.8 |
| 20260901062905 | 73 | 10 | 2.0 | 2.0 | 0.00 | 0.00 | 0.00 | 97 | 1023.8 |
| 20260901062352 | 73 | 3 | 3.0 | 2.0 | 0.00 | 0.00 | 0.00 | 97 | 1023.9 |
| 20260901061356 | 73 | 3 | 3.0 | 3.0 | 0.00 | 0.00 | 0.00 | 97 | 1023.9 |
| 20260901060855 | 73 | 3 | 3.0 | 5.0 | 0.00 | 0.00 | 0.00 | 97 | 1023.9 |
| 20260901060342 | 73 | 2 | 3.0 | 5.0 | 0.00 | 0.00 | 0.00 | 97 | 1023.9 |
| 20260901055843 | 73 | 17 | 2.0 | 5.0 | 0.00 | 0.00 | 0.00 | 97 | 1023.9 |
| 20260901055340 | 74 | 359 | 2.0 | 5.0 | 0.00 | 0.00 | 0.00 | 97 | 1024.1 |
| 20260901054838 | 74 | 359 | 2.0 | 5.0 | 0.00 | 0.00 | 0.00 | 97 | 1024.1 |
| 20260901054335 | 74 | 15 | 2.0 | 4.0 | 0.00 | 0.00 | 0.00 | 96 | 1024.1 |
| 20260901053832 | 74 | 16 | 2.0 | 4.0 | 0.00 | 0.00 | 0.00 | 96 | 1023.9 |
| 20260901053330 | 74 | 14 | 2.0 | 3.0 | 0.00 | 0.00 | 0.00 | 97 | 1023.9 |
| 20260901052817 | 74 | 14 | 2.0 | 2.0 | 0.00 | 0.00 | 0.00 | 97 | 1023.9 |
| 20260901052316 | 74 | 14 | 2.0 | 3.0 | 0.00 | 0.00 | 0.00 | 96 | 1023.8 |
| 20260901051807 | 74 | 14 | 2.0 | 3.0 | 0.00 | 0.00 | 0.00 | 96 | 1023.8 |
| 20260901051754 | 74 | 14 | 2.0 | 4.0 | 0.00 | 0.00 | 0.00 | 96 | 1023.8 |
| 20260901050800 | 74 | 14 | 2.0 | 4.0 | 0.00 | 0.00 | 0.00 | 96 | 1023.8 |
| 20260901050257 | 74 | 14 | 2.0 | 4.0 | 0.00 | 0.00 | 0.00 | 96 | 1023.8 |
| 20260901045757 | 74 | 6 | 3.0 | 4.0 | 0.00 | 0.00 | 0.00 | 96 | 1023.8 |
| 20260901045258 | 74 | 1 | 3.0 | 4.0 | 0.00 | 0.00 | 0.00 | 96 | 1023.7 |
| 20260901044754 | 74 | 6 | 2.0 | 4.0 | 0.00 | 0.00 | 0.00 | 95 | 1023.7 |
| 20260901044255 | 74 | 14 | 2.0 | 4.0 | 0.00 | 0.00 | 0.00 | 95 | 1023.7 |
| 20260901043755 | 74 | 11 | 2.0 | 4.0 | 0.00 | 0.00 | 0.00 | 95 | 1023.8 |
| 20260901043252 | 74 | 14 | 2.0 | 3.0 | 0.00 | 0.00 | 0.00 | 95 | 1023.8 |
| 20260901042747 | 75 | 14 | 2.0 | 3.0 | 0.00 | 0.00 | 0.00 | 95 | 1023.8 |
| 20260901042250 | 75 | 14 | 2.0 | 3.0 | 0.00 | 0.00 | 0.00 | 95 | 1023.8 |
| 20260901041747 | 75 | 14 | 2.0 | 3.0 | 0.00 | 0.00 | 0.00 | 95 | 1023.8 |
| 20260901041247 | 75 | 14 | 2.0 | 2.0 | 0.00 | 0.00 | 0.00 | 95 | 1023.8 |
| 20260901041219 | 75 | 14 | 1.0 | 2.0 | 0.00 | 0.00 | 0.00 | 95 | 1023.7 |
| 20260901040239 | 75 | 14 | 1.0 | 2.0 | 0.00 | 0.00 | 0.00 | 94 | 1023.7 |
| 20260901035733 | 75 | 14 | 1.0 | 2.0 | 0.00 | 0.00 | 0.00 | 94 | 1023.7 |
| 20260901035233 | 75 | 14 | 1.0 | 2.0 | 0.00 | 0.00 | 0.00 | 94 | 1023.5 |
| 20260901034732 | 75 | 14 | 2.0 | 3.0 | 0.00 | 0.00 | 0.00 | 93 | 1023.5 |
| 20260901034706 | 75 | 11 | 2.0 | 4.0 | 0.00 | 0.00 | 0.00 | 93 | 1023.5 |
| 20260901033727 | 75 | 11 | 3.0 | 4.0 | 0.00 | 0.00 | 0.00 | 93 | 1023.5 |
| 20260901033222 | 75 | 13 | 3.0 | 5.0 | 0.00 | 0.00 | 0.00 | 93 | 1023.5 |
| 20260901032725 | 75 | 3 | 3.0 | 5.0 | 0.00 | 0.00 | 0.00 | 93 | 1023.5 |
| 20260901032209 | 75 | 6 | 3.0 | 5.0 | 0.00 | 0.00 | 0.00 | 92 | 1023.5 |
| 20260901031932 | 76 | 6 | 3.0 | 5.0 | 0.00 | 0.00 | 0.00 | 92 | 1023.5 |
| 20260901031203 | 76 | 6 | 3.0 | 5.0 | 0.00 | 0.00 | 0.00 | 92 | 1023.5 |
| 20260901030700 | 76 | 343 | 2.0 | 5.0 | 0.00 | 0.00 | 0.00 | 92 | 1023.5 |
| 20260901030202 | 76 | 8 | 2.0 | 3.0 | 0.00 | 0.00 | 0.00 | 91 | 1023.5 |
| 20260901025659 | 76 | 8 | 1.0 | 3.0 | 0.00 | 0.00 | 0.00 | 90 | 1023.4 |
| 20260901025200 | 76 | 8 | 1.0 | 3.0 | 0.00 | 0.00 | 0.00 | 90 | 1023.4 |
| 20260901024702 | 76 | 8 | 0.0 | 3.0 | 0.00 | 0.00 | 0.00 | 90 | 1023.4 |
| 20260901024419 | 76 | 8 | 0.0 | 3.0 | 0.00 | 0.00 | 0.00 | 89 | 1023.3 |
| 20260901024145 | 76 | 8 | 1.0 | 2.0 | 0.00 | 0.00 | 0.00 | 89 | 1023.3 |
| 20260901023118 | 76 | 8 | 1.0 | 3.0 | 0.00 | 0.00 | 0.00 | 89 | 1023.3 |
| 20260901022612 | 76 | 8 | 2.0 | 3.0 | 0.00 | 0.00 | 0.00 | 89 | 1023.4 |
| 20260901022112 | 76 | 8 | 0.0 | 3.0 | 0.00 | 0.00 | 0.00 | 89 | 1023.4 |
| 20260901021612 | 76 | 8 | 0.0 | 3.0 | 0.00 | 0.00 | 0.00 | 88 | 1023.4 |
| 20260901021101 | 76 | 8 | 1.0 | 2.0 | 0.00 | 0.00 | 0.00 | 88 | 1023.4 |
| 20260901020543 | 77 | 8 | 1.0 | 3.0 | 0.00 | 0.00 | 0.00 | 88 | 1023.4 |
| 20260901020039 | 77 | 8 | 0.0 | 3.0 | 0.00 | 0.00 | 0.00 | 87 | 1023.4 |
| 20260901015804 | 77 | 8 | 0.0 | 2.0 | 0.00 | 0.00 | 0.00 | 87 | 1023.1 |
| 20260901015020 | 77 | 8 | 1.0 | 2.0 | 0.00 | 0.00 | 0.00 | 86 | 1023.1 |
| 20260901014512 | 78 | 8 | 1.0 | 2.0 | 0.00 | 0.00 | 0.00 | 85 | 1023.1 |
| 20260901014014 | 78 | 8 | 2.0 | 4.0 | 0.00 | 0.00 | 0.00 | 84 | 1023.0 |
| 20260901013509 | 78 | 8 | 2.0 | 4.0 | 0.00 | 0.00 | 0.00 | 84 | 1023.0 |
| 20260901013228 | 78 | 346 | 2.0 | 4.0 | 0.00 | 0.00 | 0.00 | 84 | 1023.0 |
| 20260901012458 | 78 | 358 | 2.0 | 3.0 | 0.00 | 0.00 | 0.00 | 84 | 1023.0 |
| 20260901011957 | 78 | 336 | 2.0 | 3.0 | 0.00 | 0.00 | 0.00 | 84 | 1023.0 |
| 20260901011451 | 78 | 336 | 2.0 | 4.0 | 0.00 | 0.00 | 0.00 | 83 | 1023.0 |
| 20260901010942 | 79 | 336 | 2.0 | 4.0 | 0.00 | 0.00 | 0.00 | 83 | 1022.8 |
| 20260901010443 | 79 | 325 | 2.0 | 3.0 | 0.00 | 0.00 | 0.00 | 82 | 1022.8 |
| 20260901010136 | 79 | 319 | 0.0 | 3.0 | 0.00 | 0.00 | 0.00 | 81 | 1022.8 |
| 20260901005629 | 80 | 319 | 0.0 | 2.0 | 0.00 | 0.00 | 0.00 | 81 | 1022.7 |
| 20260901004911 | 80 | 319 | 0.0 | 3.0 | 0.00 | 0.00 | 0.00 | 81 | 1022.7 |
| 20260901004411 | 80 | 319 | 0.0 | 3.0 | 0.00 | 0.00 | 0.00 | 80 | 1022.7 |
| 20260901003907 | 80 | 320 | 1.0 | 2.0 | 0.00 | 0.00 | 0.00 | 76 | 1022.7 |
| 20260901003405 | 80 | 320 | 1.0 | 2.0 | 0.00 | 0.00 | 0.00 | 77 | 1022.7 |
| 20260901002902 | 81 | 319 | 0.0 | 2.0 | 0.00 | 0.00 | 0.00 | 78 | 1022.7 |
| 20260901002402 | 82 | 319 | 0.0 | 2.0 | 0.00 | 0.00 | 0.00 | 77 | 1022.6 |
| 20260901001902 | 82 | 319 | 1.0 | 2.0 | 0.00 | 0.00 | 0.00 | 75 | 1022.6 |
| 20260901001622 | 83 | 319 | 1.0 | 2.0 | 0.00 | 0.00 | 0.00 | 74 | 1022.6 |
| 20260901000837 | 83 | 319 | 2.0 | 3.0 | 0.00 | 0.00 | 0.00 | 70 | 1022.7 |
| 20260901000321 | 84 | 319 | 2.0 | 3.0 | 0.00 | 0.00 | 0.00 | 68 | 1022.7 |
| 20260901000035 | 85 | 315 | 1.0 | 3.0 | 0.00 | 0.00 | 0.00 | 66 | 1022.7 |
| 20260831235258 | 87 | 222 | 1.0 | 2.0 | 0.00 | 0.00 | 0.00 | 63 | 1022.7 |
| 20260831234755 | 88 | 222 | 0.0 | 2.0 | 0.00 | 0.00 | 0.00 | 61 | 1022.7 |
| 20260831234247 | 89 | 222 | 0.0 | 3.0 | 0.00 | 0.00 | 0.00 | 60 | 1022.7 |
| 20260831233747 | 90 | 222 | 0.0 | 3.0 | 0.00 | 0.00 | 0.00 | 60 | 1022.7 |
| 20260831233216 | 90 | 222 | 0.0 | 2.0 | 0.00 | 0.00 | 0.00 | 58 | 1022.7 |
| 20260831232715 | 90 | 222 | 0.0 | 1.0 | 0.00 | 0.00 | 0.00 | 59 | 1022.8 |
| 20260831232211 | 90 | 222 | 0.0 | 1.0 | 0.00 | 0.00 | 0.00 | 60 | 1022.8 |
| 20260831231710 | 90 | 222 | 0.0 | 1.0 | 0.00 | 0.00 | 0.00 | 61 | 1022.8 |
| 20260831231210 | 90 | 222 | 0.0 | 2.0 | 0.00 | 0.00 | 0.00 | 60 | 1022.8 |
| 20260831230642 | 90 | 222 | 0.0 | 2.0 | 0.00 | 0.00 | 0.00 | 60 | 1022.8 |
| 20260831230141 | 90 | 222 | 0.0 | 2.0 | 0.00 | 0.00 | 0.00 | 61 | 1022.8 |
| 20260831225641 | 90 | 222 | 2.0 | 0.0 | 0.00 | 0.00 | 0.00 | 59 | 1022.8 |